EHI
0 0 0 0 0 0 0 0 0 0 0 0 0 0 0 0 0 0 0 0 0 0 0 0 0 0 0 0 0 0 0 0 0 0 0 0 0 0 0 0 0 0 0 0
0 0 0 0 0 0 0 0 0 0 0 0 0 0 0 0 0 0 0 0 0 0 0 0 0 0 0 0 0 0 0 0 0 0 0 0 0 0 0 0 0 0 0 0
0 0 0 0 0 0 0 0 0 0 0 0 0 0 0 0 0 0 0 0 0 0 0 0 0 0 0 0 0 0 0 0 0 0 0 0 0 0 0 0 0 0 0 0
0 0 0 0 0 0 0 0 0 0 0 0 0 0 0 0 0 0 0 0 0 0 0 0 0 0 0 0 0 0 0 0 0 0 0 0 0 0 0 0 0 0 0 0
0 0 0 0 0 0 0 0 0 0 0 0 0 0 0 0 0 0 0 0 0 0 0 0 0 0 0 0 0 0 0 0 0 0 0 0 0 0 0 0 0 0 0 0
0 0 0 0 0 0 0 0 0 0 0 0 0 0 0 0 0 0 0 0 0 0 0 0 0 0 0 0 0 0 0 0 0 0 0 0 0 0 0 0 0 0 0 0
0 0 0 0 0 0 0 0 0 0 0 0 0 0 0 0 0 0 0 0 0 0 0 0 0 0 0 0 0 0 0 0 0 0 0 0 0 0 0 0 0 0 0 0
0 0 0 0 0 0 0 0 0 0 0 0 0 0 0 0 0 0 0 0 0 0 0 0 0 0 0 0 0 0 0 0 0 0 0 0 0 0 0 0 0 0 0 0
0 0 0 0 0 0 0 0 0 0 0 0 0 0 0 0 0 0 0 0 0 0 0 0 0 0 0 0 0 0 0 0 0 0 0 0 0 0 0 0 0 0 0 0
0 0 0 0 0 0 0 0 0 0 0 0 0 0 0 0 0 0 0 0 0 0 0 0 0 0 0 0 0 0 0 0 0 0 0 0 0 0 0 0 0 0 0 0
0 0 0 0 0 0 0 0 0 0 0 0 0 0 0 0 0 0 0 0 0 0 0 0 0 0 0 0 0 0 0 0 0 0 0 0 0 0 0 0 0 0 0 0
0 0 0 0 0 0 0 0 0 0 0 0 0 0 0 0 0 0 0 0 0 0 0 0 0 0 0 0 0 0 0 0 0 0 0 0 0 0 0 0 0 0 0 0
0 0 0 0 0 0 0 0 0 0 0 0 0 0 0 0 0 0 0 0 0 0 0 0 0 0 0 0 0 0 0 0 0 0 0 0 0 0 0 0 0 0 0 0
0 0 0 0 0 0 0 0 0 0 0 0 0 0 0 0 0 0 0 0 0 0 0 0 0 0 0 0 0 0 0 0 0 0 0 0 0 0 0 0 0 0 0 0
0 0 0 0 0 0 0 0 0 0 0 0 0 0 0 0 0 0 0 0 0 0 0 0 0 0 0 0 0 0 0 0 0 0 0 0 0 0 0 0 0 0 0 0
0 0 0 0 0 0 0 0 0 0 0 0 0 0 0 0 0 0 0 0 0 0 0 0 0 0 0 0 0 0 0 0 0 0 0 0 0 0 0 0 0 0 0 0
0 0 0 0 0 0 0 0 0 0 0 0 0 0 0 0 0 0 0 0 0 0 0 0 0 0 0 0 0 0 0 0 0 0 0 0 0 0 0 0 0 0 0 0
0 0 0 0 0 0 0 0 0 0 0 0 0 0 0 0 0 0 0 0 0 0 0 0 0 0 0 0 0 0 0 0 0 0 0 0 0 0 0 0 0 0 0 0
0 0 0 0 0 0 0 0 0 0 0 0 0 0 0 0 0 0 0 0 0 0 0 0 0 0 0 0 0 0 0 0 0 0 0 0 0 0 0 0 0 0 0 0
0 0 0 0 0 0 0 0 0 0 0 0 0 0 0 0 0 0 0 0 0 0 0 0 0 0 0 0 0 0 0 0 0 0 0 0 0 0 0 0 0 0 0 0
0 0 0 0 0 0 0 0 0 0 0 0 0 0 0 0 0 0 0 0 0 0 0 0 0 0 0 0 0 0 0 0 0 0 0 0 0 0 0 0 0 0 0 0
0 0 0 0 0 0 0 0 0 0 0 0 0 0 0 0 0 0 0 0 0 0 0 0 0 0 0 0 0 0 0 0 0 0 0 0 0 0 0 0 0 0 0 0
0 0 0 0 0 0 0 0 0 0 0 0 0 0 0 0 0 0 0 0 0 0 0 0 0 0 0 0 0 0 0 0 0 0 0 0 0 0 0 0 0 0 0 0
0 0 0 0 0 0 0 0 0 0 0 0 0 0 0 0 0 0 0 0 0 0 0 0 0 0 0 0 0 0 0 0 0 0 0 0 0 0 0 0 0 0 0 0
0 0 0 0 0 0 0 0 0 0 0 0 0 0 0 0 0 0 0 0 0 0 0 0 0 0 0 0 0 0 0 0 0 0 0 0 0 0 0 0 0 0 0 0
0 0 0 0 0 0 0 0 0 0 0 0 0 0 0 0 0 0 0 0 0 0 0 0 0 0 0 0 0 0 0 0 0 0 0 0 0 0 0 0 0 0 0 0
Wind_Speed
7 4 6 6 7 6 7 7 10 6 3 2 6 9 7 6 6 5 6 7 8 7 6 6 6 7 7 7 7 7 6 5 4 3 2 2 2 1 1 1 1 1 2 2
5 8 9 5 4 4 5 8 9 7 3 1 6 10 7 6 7 6 7 8 9 8 7 6 7 6 7 7 7 7 6 5 5 3 3 2 2 1 1 1 0 1 1 1
10 3 2 1 2 5 7 8 8 7 3 4 5 8 8 6 5 4 6 9 9 9 8 7 7 7 6 6 6 6 6 6 6 5 3 2 1 0 0 0 0 1 0 1
8 5 3 3 6 6 7 4 4 4 4 5 5 5 4 9 7 6 6 8 9 9 8 8 8 7 6 6 6 7 7 6 5 4 3 2 2 1 1 1 1 1 2 1
5 5 4 5 6 6 2 3 3 4 5 7 6 6 6 10 9 10 9 8 9 9 9 8 8 8 7 6 5 6 7 6 5 4 3 3 3 2 1 1 1 2 1 2
9 2 4 2 2 2 2 1 4 3 3 6 9 8 5 9 12 13 12 10 10 10 9 8 8 8 7 5 5 5 6 5 4 4 4 4 4 3 3 3 3 2 2 1
8 9 6 4 3 1 2 3 3 4 4 8 2 4 5 5 9 14 15 13 11 10 9 9 9 8 7 6 5 5 6 5 4 4 3 4 3 2 2 2 2 3 2 2
8 9 13 8 7 6 7 5 4 3 3 0 1 5 2 5 4 8 14 14 12 11 9 9 9 8 7 7 6 5 5 5 4 3 3 3 2 1 1 2 2 3 2 2
5 2 5 4 3 2 5 7 3 4 6 4 5 4 3 3 3 3 12 13 13 11 10 10 9 8 8 7 6 6 6 5 4 3 3 3 2 2 2 2 3 2 3 3
5 2 5 3 1 3 3 3 3 3 4 4 6 6 5 6 5 4 8 12 12 11 10 10 8 8 7 6 5 5 5 5 3 3 2 1 1 2 2 3 4 4 4 4
5 3 6 5 8 8 6 3 4 4 3 2 4 2 3 5 8 9 8 9 11 11 11 9 8 8 8 7 6 5 5 4 3 2 2 1 1 2 3 3 4 4 4 5
6 3 4 5 2 1 6 7 7 4 4 4 2 4 2 5 5 6 7 7 9 11 10 9 9 8 7 7 6 5 5 4 3 2 1 1 2 3 3 4 5 5 5 6
7 4 3 2 1 2 4 5 6 4 3 3 4 4 2 3 4 4 5 6 7 9 9 9 8 8 7 7 6 5 5 4 3 2 1 2 3 3 4 5 5 5 6 7
2 4 5 3 2 7 5 7 7 5 4 5 8 6 4 6 5 6 6 6 7 8 9 8 8 7 7 6 6 5 4 4 3 1 1 3 4 4 4 5 6 6 7 7
1 3 5 3 2 2 4 7 9 10 9 7 7 8 6 1 3 5 6 7 8 8 8 8 7 7 7 6 5 4 3 3 2 1 2 4 4 4 5 6 6 7 7 8
3 3 3 3 2 2 4 6 8 10 11 11 11 12 4 2 3 3 4 6 7 8 8 8 7 7 7 6 5 4 3 2 2 2 4 4 4 5 6 6 7 7 8 8
5 3 2 3 2 0 7 10 12 10 9 8 10 8 1 1 2 2 1 3 6 7 8 8 7 6 5 5 4 3 2 1 1 3 4 5 5 6 6 7 7 8 8 9
5 4 2 2 2 7 7 1 2 6 8 8 7 4 2 3 4 3 2 3 5 7 8 7 6 6 5 4 3 2 1 1 3 4 5 5 5 6 7 7 8 8 8 8
1 3 3 3 4 7 6 4 4 3 4 4 4 1 5 7 4 1 2 4 6 7 7 7 6 6 4 4 3 2 1 2 4 5 6 6 5 6 7 8 9 9 8 8
1 1 2 3 4 7 2 2 2 2 4 1 2 3 7 6 2 2 5 7 8 8 7 6 5 4 3 3 2 1 2 4 5 6 6 6 6 7 8 9 9 8 7 9
4 4 5 5 6 7 2 4 4 4 4 2 2 3 6 5 3 5 7 7 8 8 7 6 4 3 2 2 1 2 4 5 6 6 6 6 7 8 9 8 7 8 8 8
9 7 7 6 6 9 6 6 6 3 3 2 2 3 5 6 7 7 7 7 7 6 5 4 3 2 1 1 1 3 5 6 6 6 7 7 8 8 7 8 8 8 8 8
8 8 6 8 7 2 7 4 3 3 3 2 2 3 7 8 6 6 6 6 5 5 4 3 2 1 1 2 2 4 6 6 6 7 7 8 8 7 7 8 8 8 7 7
4 2 1 2 2 5 4 3 3 3 2 3 3 4 6 7 7 6 6 5 4 4 4 2 1 1 3 3 3 4 6 6 6 7 7 7 7 8 7 6 6 6 6 7
5 5 3 4 2 3 4 4 3 3 3 3 4 4 5 7 6 6 5 4 4 3 3 2 1 3 4 4 5 5 6 6 7 7 7 7 7 7 7 7 6 8 7 9
4 6 6 4 3 4 3 3 4 5 4 4 5 4 4 5 6 5 4 4 4 3 2 1 2 4 4 5 6 6 6 6 6 7 7 6 6 6 7 8 9 12 14 22
Wind_Direction
193 230 242 243 226 260 317 315 309 312 118 186 251 261 244 183 186 199 169 137 119 113 108 98 91 85 83 85 97 106 111 107 103 103 110 114 133 175 196 226 281 288 265 255
224 235 251 276 358 338 299 285 283 288 130 179 269 270 248 186 189 188 165 141 132 130 120 112 106 101 99 99 102 105 107 105 98 94 92 91 95 84 82 44 34 325 310 287
231 231 102 133 252 256 257 255 268 296 331 240 258 279 230 173 163 158 153 141 140 142 137 125 111 102 97 97 103 104 103 99 97 100 96 84 78 41 63 133 149 266 291 333
243 235 175 226 249 244 264 282 277 300 306 282 203 276 217 164 168 177 170 150 143 138 134 130 123 112 104 100 99 103 105 103 104 106 100 111 102 93 103 111 182 246 191 170
237 159 172 230 245 249 248 27 323 281 271 280 257 250 259 153 181 189 183 167 149 143 138 133 127 123 115 108 107 108 106 104 102 97 90 70 61 48 44 20 13 345 297 175
255 197 191 217 65 354 95 244 253 250 252 260 234 216 255 182 195 182 179 170 154 147 141 134 129 125 120 120 117 117 112 109 106 99 96 82 64 27 22 12 6 345 327 310
239 226 191 149 151 160 190 223 246 216 213 241 217 202 258 171 176 175 174 167 158 152 150 148 149 145 142 140 136 130 123 120 112 100 89 95 84 29 27 22 353 336 327 325
219 222 189 181 196 183 194 222 245 275 263 17 183 231 239 64 59 158 160 159 157 159 160 160 161 153 148 149 148 136 123 114 101 92 77 74 79 63 30 4 330 312 302 298
237 180 95 131 192 246 196 212 260 313 303 285 253 204 110 78 47 124 154 159 165 167 165 163 159 152 150 153 151 137 127 116 101 88 72 51 35 42 9 329 310 301 294 292
272 160 138 106 99 259 292 300 178 205 242 264 265 237 191 174 188 189 172 169 169 166 163 161 158 153 150 147 136 124 120 117 108 86 81 58 360 17 343 313 302 296 296 299
227 229 144 166 201 196 187 223 234 245 266 267 292 328 33 150 173 184 195 180 172 169 165 161 158 151 142 137 137 133 128 123 116 94 67 16 351 339 314 298 291 293 293 293
200 243 199 176 150 60 196 204 204 218 241 216 240 274 61 80 118 159 184 183 172 165 160 155 151 145 144 148 149 144 140 135 130 112 47 327 313 301 296 293 297 301 298 295
175 211 203 145 206 206 224 226 228 255 299 261 245 245 149 133 133 149 166 173 163 155 152 148 147 149 152 154 151 150 150 147 142 130 299 301 302 303 300 300 302 302 296 291
184 234 232 212 117 159 194 202 205 210 221 241 235 254 215 193 182 175 170 167 154 148 150 150 151 152 152 153 153 151 150 145 145 164 257 283 288 291 292 294 294 291 288 286
179 252 263 274 97 141 206 201 197 210 226 240 257 269 284 277 177 170 165 161 152 151 154 154 155 151 148 149 149 145 145 149 157 213 259 267 273 281 285 285 284 284 283 282
198 255 281 272 203 217 263 249 228 223 231 245 266 274 293 38 74 98 140 153 160 161 157 152 149 146 148 151 150 144 158 172 180 239 261 270 276 279 278 278 280 281 281 280
183 213 212 247 198 204 254 231 226 226 222 219 242 255 24 69 90 93 107 147 160 155 149 149 147 143 142 142 141 153 171 176 227 258 267 271 271 274 275 277 282 281 281 281
188 201 222 225 175 234 239 137 201 230 244 230 238 245 164 119 98 65 90 143 145 138 137 137 134 132 130 128 135 147 167 231 256 264 269 271 272 274 278 281 281 280 278 280
344 199 213 192 223 261 256 197 171 196 265 243 236 224 105 98 83 55 76 101 120 120 120 121 121 124 127 138 152 162 231 262 270 273 275 276 278 281 284 282 280 279 281 284
309 288 217 187 209 238 239 100 100 117 269 332 113 117 127 122 151 201 121 98 96 98 100 105 108 117 137 156 146 180 258 272 275 276 277 281 283 283 281 279 279 280 282 282
164 195 206 209 225 251 173 153 134 171 227 71 87 127 145 163 169 136 116 104 104 104 107 113 123 138 158 149 150 246 267 270 273 279 284 285 281 279 278 280 280 282 282 283
173 178 195 192 221 243 163 159 187 186 136 119 116 133 137 121 110 113 113 115 117 119 125 131 136 150 161 172 227 264 269 271 279 285 285 283 281 281 285 284 284 283 285 289
187 190 192 194 207 198 159 160 133 117 126 128 131 128 133 134 137 132 132 132 133 137 138 136 142 175 245 252 247 264 272 279 286 286 284 284 286 285 284 285 288 290 287 284
198 128 154 263 191 154 166 143 143 138 128 112 123 132 138 143 144 145 144 143 143 140 140 141 154 243 271 276 276 272 282 288 289 288 288 289 291 290 287 285 284 285 284 283
167 153 190 236 213 147 190 198 173 145 129 119 115 127 143 143 145 147 148 150 147 140 140 152 212 258 271 281 283 283 286 291 290 288 287 289 287 288 290 285 279 284 272 279
158 168 183 212 189 168 159 145 138 143 150 143 133 123 121 133 140 139 142 142 138 144 155 197 248 269 281 289 288 287 287 288 289 290 288 286 286 287 287 289 290 283 283 294